Houston Hull, TX

3:13 PM CST on December 15, 2019 (GMT -0600)
Sugar Land Municipal-Hull

Weather History for KSGR - October, 2019

Change the Weather History Date:

Sunday, October 6, 2019

  Actual Average Record
Temperature  
Mean Temperature 81 °F -  
Max Temperature 91 °F 85 °F 93 °F (2018)
Min Temperature 71 °F 63 °F 46 °F (1964)
Cooling Degree Days 16    
Growing Degree Days 31 (Base 50)    
Moisture  
Dew Point 72 °F    
Average Humidity 82    
Maximum Humidity 100    
Minimum Humidity 46    
Precipitation  
Precipitation 0.00 in - - ()
Sea Level Pressure  
Sea Level Pressure 29.96 in    
Wind  
Wind Speed 2 mph (ESE)    
Max Wind Speed 9 mph    
Max Gust Speed -    
Visibility 7 miles    
Events      
Averages and records for this station are not official NWS values.
T = Trace of Precipitation, MM = Missing Value Source: NWS Daily Summary

Daily Weather History Graph

Daily Weather History Graph

Search for Another Location

Airport or City:

Astronomy

Oct. 06, 2019 Rise Set
Actual Time 7:18 AM CDT 7:02 PM CDT
Civil Twilight 6:54 AM CDT 7:26 PM CDT
Nautical Twilight 6:27 AM CDT 7:53 PM CDT
Astronomical Twilight 5:59 AM CDT 8:21 PM CDT
Moon 3:09 PM CDT (10/6) 12:51 AM CDT (10/6)
Length of Visible Light 12h 31m
Length of Day
11h 43m
First Quarter, 60% of the Moon is Illuminated
Oct 6
First Quarter
Oct 13
Full
Oct 21
Last Quarter
Oct 27
New
Nov 4
First Quarter

Hourly Weather History & Observations

Time (CDT) Temp. Heat Index Dew Point Humidity Pressure Visibility Wind Dir Wind Speed Gust Speed Precip Events Conditions
12:53 AM 75.0 °F - 73.0 °F 94% 29.94 in 10.0 mi Calm Calm - N/A   Clear
1:53 AM 75.0 °F - 73.9 °F 96% 29.94 in 9.0 mi Calm Calm - N/A   Clear
2:53 AM 73.0 °F - 73.0 °F 100% 29.94 in 8.0 mi Calm Calm - N/A   Clear
3:53 AM 73.9 °F - 73.9 °F 100% 29.93 in 7.0 mi Calm Calm - N/A   Clear
4:53 AM 73.0 °F - 72.0 °F 96% 29.93 in 5.0 mi Calm Calm - N/A   Clear
5:14 AM 72.0 °F - 72.0 °F 100% 29.93 in 1.8 mi Calm Calm - N/A   Clear
5:26 AM 72.0 °F - 72.0 °F 100% 29.94 in 3.0 mi Calm Calm - N/A   Clear
5:53 AM 71.1 °F - 71.1 °F 100% 29.95 in 4.0 mi Calm Calm - N/A   Clear
6:39 AM 71.1 °F - 71.1 °F 100% 29.96 in 1.5 mi Calm Calm - N/A   Clear
6:53 AM 72.0 °F - 72.0 °F 100% 29.96 in 2.5 mi Calm Calm - N/A   Clear
7:00 AM 71.1 °F - 71.1 °F 100% 29.96 in 3.0 mi Calm Calm - N/A   Clear
7:07 AM 71.1 °F - 71.1 °F 100% 29.96 in 2.5 mi Calm Calm - N/A   Clear
7:16 AM 72.0 °F - 72.0 °F 100% 29.96 in 0.8 mi North 3.5 mph - N/A   Clear
7:30 AM 71.1 °F - 71.1 °F 100% 29.97 in 1.2 mi Calm Calm - N/A   Clear
7:48 AM 73.4 °F - 73.4 °F 100% 29.97 in 3.0 mi Calm Calm - N/A   Clear
7:53 AM 73.0 °F - 73.0 °F 100% 29.98 in 4.0 mi North 4.6 mph - N/A   Clear
8:53 AM 78.1 °F - 75.9 °F 93% 29.99 in 7.0 mi North 3.5 mph - N/A   Clear
9:53 AM 84.0 °F 91.9 °F 75.0 °F 74% 30.00 in 10.0 mi East 3.5 mph - N/A   Clear
10:53 AM 84.9 °F 92.1 °F 73.9 °F 69% 30.01 in 10.0 mi East 6.9 mph - N/A   Scattered Clouds
11:13 AM 84.9 °F 92.1 °F 73.9 °F 69% 30.01 in 10.0 mi SE 5.8 mph - N/A   Mostly Cloudy
11:37 AM 86.0 °F 93.8 °F 73.9 °F 67% 30.00 in 10.0 mi East 5.8 mph - N/A   Mostly Cloudy
11:53 AM 84.9 °F 92.1 °F 73.9 °F 69% 30.00 in 10.0 mi SE 5.8 mph - N/A   Mostly Cloudy
12:53 PM 89.1 °F 98.0 °F 73.9 °F 61% 29.99 in 10.0 mi ESE 8.1 mph - N/A   Mostly Cloudy
1:53 PM 89.1 °F 96.0 °F 72.0 °F 57% 29.96 in 10.0 mi ESE 5.8 mph - N/A   Clear
2:53 PM 91.0 °F 99.3 °F 73.0 °F 55% 29.94 in 10.0 mi ESE 9.2 mph - N/A   Clear
3:53 PM 90.0 °F 94.5 °F 69.1 °F 50% 29.93 in 10.0 mi ESE 6.9 mph - N/A   Clear
4:53 PM 90.0 °F 92.8 °F 66.9 °F 46% 29.92 in 10.0 mi ESE 9.2 mph - N/A   Clear
5:53 PM 89.1 °F 92.1 °F 66.9 °F 48% 29.91 in 10.0 mi ESE 6.9 mph - N/A   Clear
6:53 PM 87.1 °F 90.6 °F 68.0 °F 53% 29.92 in 10.0 mi ESE 6.9 mph - N/A   Clear
7:53 PM 84.0 °F 88.4 °F 70.0 °F 63% 29.94 in 10.0 mi ESE 6.9 mph - N/A   Clear
8:53 PM 82.0 °F 86.7 °F 72.0 °F 71% 29.96 in 10.0 mi SE 6.9 mph - N/A   Clear
9:53 PM 77.0 °F - 73.0 °F 88% 29.98 in 10.0 mi Calm Calm - N/A   Clear
10:53 PM 80.1 °F 84.2 °F 73.0 °F 79% 29.99 in 10.0 mi ESE 4.6 mph - N/A   Clear
11:53 PM 80.1 °F 84.5 °F 73.9 °F 81% 29.98 in 10.0 mi ESE 6.9 mph - N/A   Clear